{"data":{"norad_id":59400,"epoch":"2026-05-24T21:35:21.248736Z","epoch_age_seconds":80764,"freshness":"FRESH","line1":"1 59400U 24064C   26144.89955149  .00001488  00000+0  63561-4 0  9996","line2":"2 59400  43.0024 345.5619 0001221 268.0351  92.0360 15.27584853120884","mean_motion":15.27584853,"eccentricity":0.0001221,"inclination_deg":43.0024,"raan_deg":345.5619,"arg_perigee_deg":268.0351,"mean_anomaly_deg":92.036,"bstar":6.3561e-5,"rev_number":12088,"period_min":94.26644923665,"perigee_km":482.19681540225,"apogee_km":483.87231349829,"semimajor_km":6861.1715644503,"source":"CELESTRAK","updated_at":"2026-05-25T13:38:18.939087Z"}}